• In Netherlands
  • List of Countries
  • For 7 days
  • Water Temperature
  • Satellite Maps
  • Weather Map
  • Weather Widgets
  • user-avatar
    Login

    Hourly Weather Kandahar

    Today, 15 December, Friday

    Time Temperature Precipitation Wind Pressure Humidity
    00:00 +3°C° 0 mm 2 mps 678 mmHg 43%
    01:00 +3°C° 0 mm 2 mps 678 mmHg 44%
    02:00 +3°C° 0 mm 2 mps 678 mmHg 45%
    03:00 +2°C° 0 mm 2 mps 678 mmHg 45%
    04:00 +2°C° 0 mm 2 mps 678 mmHg 44%
    05:00 +2°C° 0 mm 2 mps 678 mmHg 43%
    06:00 +2°C° 0 mm 2 mps 678 mmHg 43%
    07:00 +2°C° 0 mm 2 mps 679 mmHg 43%
    08:00 +3°C° 0 mm 3 mps 679 mmHg 37%
    09:00 +5°C° 0 mm 3 mps 679 mmHg 31%
    10:00 +8°C° 0 mm 3 mps 680 mmHg 26%
    11:00 +9°C° 0 mm 3 mps 679 mmHg 23%
    12:00 +10°C° 0 mm 3 mps 679 mmHg 21%
    13:00 +12°C° 0 mm 2 mps 679 mmHg 18%
    14:00 +12°C° 0 mm 2 mps 678 mmHg 18%
    15:00 +10°C° 0 mm 2 mps 678 mmHg 18%
    16:00 +10°C° 0 mm 2 mps 678 mmHg 19%
    17:00 +9°C° 0 mm 2 mps 678 mmHg 20%
    18:00 +8°C° 0 mm 2 mps 678 mmHg 22%
    19:00 +7°C° 0 mm 2 mps 679 mmHg 24%
    20:00 +7°C° 0 mm 2 mps 679 mmHg 24%
    21:00 +7°C° 0 mm 2 mps 679 mmHg 25%
    22:00 +5°C° 0 mm 3 mps 679 mmHg 26%
    23:00 +5°C° 0 mm 3 mps 679 mmHg 27%

    Tomorrow, 16 December, Saturday

    Time Temperature Precipitation Wind Pressure Humidity
    00:00 +5°C° 0 mm 3 mps 679 mmHg 28%
    01:00 +4°C° 0 mm 3 mps 678 mmHg 29%
    02:00 +4°C° 0 mm 3 mps 678 mmHg 29%
    03:00 +4°C° 0 mm 3 mps 678 mmHg 30%
    04:00 +4°C° 0 mm 3 mps 678 mmHg 31%
    05:00 +4°C° 0 mm 3 mps 678 mmHg 31%
    06:00 +4°C° 0 mm 3 mps 679 mmHg 31%
    07:00 +4°C° 0 mm 3 mps 679 mmHg 32%
    08:00 +7°C° 0 mm 3 mps 680 mmHg 28%
    09:00 +9°C° 0 mm 3 mps 680 mmHg 24%
    10:00 +11°C° 0 mm 3 mps 681 mmHg 20%
    11:00 +12°C° 0 mm 3 mps 680 mmHg 18%
    12:00 +14°C° 0 mm 2 mps 680 mmHg 17%
    13:00 +15°C° 0 mm 2 mps 679 mmHg 16%
    14:00 +15°C° 0 mm 2 mps 679 mmHg 17%
    15:00 +14°C° 0 mm 1 mps 679 mmHg 17%
    16:00 +14°C° 0 mm 1 mps 679 mmHg 18%
    17:00 +13°C° 0 mm 1 mps 679 mmHg 19%
    18:00 +11°C° 0 mm 1 mps 679 mmHg 21%
    19:00 +10°C° 0 mm 1 mps 679 mmHg 23%
    20:00 +10°C° 0 mm 1 mps 679 mmHg 23%
    21:00 +9°C° 0 mm 2 mps 679 mmHg 23%
    22:00 +8°C° 0 mm 2 mps 679 mmHg 24%
    23:00 +8°C° 0 mm 2 mps 679 mmHg 24%

    Day after tomorrow, 17 December, Sunday

    Time Temperature Precipitation Wind Pressure Humidity
    00:00 +8°C° 0 mm 2 mps 679 mmHg 24%
    01:00 +8°C° 0 mm 2 mps 679 mmHg 24%
    02:00 +8°C° 0 mm 3 mps 679 mmHg 24%
    03:00 +8°C° 0 mm 3 mps 679 mmHg 25%
    04:00 +7°C° 0 mm 3 mps 679 mmHg 25%
    05:00 +7°C° 0 mm 3 mps 679 mmHg 25%
    06:00 +7°C° 0 mm 3 mps 679 mmHg 25%
    07:00 +7°C° 0 mm 3 mps 680 mmHg 25%
    08:00 +10°C° 0 mm 3 mps 680 mmHg 22%
    09:00 +12°C° 0 mm 3 mps 681 mmHg 19%
    10:00 +14°C° 0 mm 3 mps 681 mmHg 16%
    11:00 +16°C° 0 mm 3 mps 681 mmHg 15%
    12:00 +16°C° 0 mm 3 mps 681 mmHg 14%
    13:00 +17°C° 0 mm 3 mps 680 mmHg 13%
    14:00 +17°C° 0 mm 2 mps 680 mmHg 13%
    15:00 +16°C° 0 mm 2 mps 680 mmHg 14%
    16:00 +16°C° 0 mm 1 mps 679 mmHg 15%
    17:00 +15°C° 0 mm 1 mps 679 mmHg 16%
    18:00 +14°C° 0 mm 2 mps 680 mmHg 17%
    19:00 +12°C° 0 mm 2 mps 680 mmHg 19%
    20:00 +12°C° 0 mm 2 mps 680 mmHg 19%
    21:00 +12°C° 0 mm 2 mps 680 mmHg 20%
    22:00 +10°C° 0 mm 2 mps 680 mmHg 21%
    23:00 +10°C° 0 mm 2 mps 679 mmHg 22%

    18 December, Monday

    Time Temperature Precipitation Wind Pressure Humidity
    00:00 +9°C° 0 mm 2 mps 679 mmHg 23%
    01:00 +9°C° 0 mm 2 mps 679 mmHg 24%
    02:00 +9°C° 0 mm 2 mps 679 mmHg 24%
    03:00 +9°C° 0 mm 2 mps 679 mmHg 24%
    04:00 +9°C° 0 mm 2 mps 679 mmHg 25%
    05:00 +9°C° 0 mm 2 mps 679 mmHg 25%
    06:00 +9°C° 0 mm 2 mps 680 mmHg 25%
    07:00 +9°C° 0 mm 2 mps 680 mmHg 25%
    08:00 +11°C° 0 mm 3 mps 681 mmHg 22%
    09:00 +13°C° 0 mm 3 mps 681 mmHg 19%
    10:00 +16°C° 0 mm 3 mps 682 mmHg 16%
    11:00 +16°C° 0 mm 2 mps 682 mmHg 15%
    12:00 +17°C° 0 mm 2 mps 681 mmHg 14%
    13:00 +19°C° 0 mm 1 mps 681 mmHg 13%
    14:00 +18°C° 0 mm 1 mps 680 mmHg 14%
    15:00 +18°C° 0 mm 1 mps 680 mmHg 15%
    16:00 +15°C° 0 mm 0 mps 679 mmHg 16%
    17:00 +13°C° 0 mm 0 mps 679 mmHg 18%
    18:00 +12°C° 0 mm 0 mps 679 mmHg 19%
    19:00 +11°C° 0 mm 0 mps 679 mmHg 21%
    20:00 +11°C° 0 mm 1 mps 679 mmHg 22%
    21:00 +11°C° 0 mm 1 mps 679 mmHg 23%
    22:00 +10°C° 0 mm 1 mps 679 mmHg 23%
    23:00 +10°C° 0 mm 1 mps 679 mmHg 24%

    19 December, Tuesday

    Time Temperature Precipitation Wind Pressure Humidity
    00:00 +10°C° 0 mm 1 mps 679 mmHg 25%
    01:00 +10°C° 0 mm 1 mps 679 mmHg 25%
    02:00 +8°C° 0 mm 2 mps 679 mmHg 26%
    03:00 +8°C° 0 mm 2 mps 679 mmHg 27%
    04:00 +8°C° 0 mm 2 mps 679 mmHg 28%
    05:00 +8°C° 0 mm 2 mps 679 mmHg 28%
    06:00 +8°C° 0 mm 2 mps 680 mmHg 29%
    07:00 +8°C° 0 mm 2 mps 680 mmHg 29%
    08:00 +10°C° 0 mm 2 mps 681 mmHg 25%
    09:00 +13°C° 0 mm 2 mps 682 mmHg 22%
    10:00 +16°C° 0 mm 2 mps 682 mmHg 18%
    11:00 +16°C° 0 mm 1 mps 682 mmHg 17%
    12:00 +18°C° 0 mm 1 mps 681 mmHg 16%
    13:00 +17°C° 0 mm 0 mps 681 mmHg 15%
    14:00 +16°C° 0 mm 0 mps 681 mmHg 15%
    15:00 +16°C° 0 mm 0 mps 680 mmHg 16%
    16:00 +16°C° 0 mm 1 mps 680 mmHg 17%
    17:00 +15°C° 0 mm 1 mps 680 mmHg 19%
    18:00 +13°C° 0 mm 1 mps 680 mmHg 21%
    19:00 +12°C° 0 mm 1 mps 680 mmHg 23%
    20:00 +10°C° 0 mm 0 mps 680 mmHg 25%
    21:00 +9°C° 0 mm 0 mps 680 mmHg 26%
    22:00 +9°C° 0 mm 0 mps 680 mmHg 27%
    23:00 +9°C° 0 mm 0 mps 680 mmHg 28%

    20 December, Wednesday

    Time Temperature Precipitation Wind Pressure Humidity
    00:00 +8°C° 0 mm 0 mps 680 mmHg 29%
    01:00 +8°C° 0 mm 0 mps 679 mmHg 30%
    02:00 +8°C° 0 mm 0 mps 679 mmHg 31%
    03:00 +7°C° 0 mm 0 mps 679 mmHg 32%
    04:00 +7°C° 0 mm 0 mps 679 mmHg 33%
    05:00 +7°C° 0 mm 0 mps 679 mmHg 33%
    06:00 +7°C° 0 mm 0 mps 680 mmHg 34%
    07:00 +7°C° 0 mm 0 mps 680 mmHg 34%
    08:00 +9°C° 0 mm 0 mps 681 mmHg 29%
    09:00 +12°C° 0 mm 0 mps 682 mmHg 24%
    10:00 +15°C° 0 mm 0 mps 683 mmHg 20%
    11:00 +18°C° 0 mm 1 mps 682 mmHg 19%
    12:00 +18°C° 0 mm 1 mps 682 mmHg 19%
    13:00 +19°C° 0 mm 1 mps 682 mmHg 18%
    14:00 +18°C° 0 mm 2 mps 681 mmHg 19%
    15:00 +17°C° 0 mm 2 mps 681 mmHg 20%
    16:00 +17°C° 0 mm 2 mps 681 mmHg 21%
    17:00 +15°C° 0 mm 2 mps 681 mmHg 24%
    18:00 +14°C° 0 mm 1 mps 681 mmHg 27%
    19:00 +12°C° 0 mm 1 mps 681 mmHg 30%
    20:00 +12°C° 0 mm 1 mps 681 mmHg 31%
    21:00 +11°C° 0 mm 1 mps 681 mmHg 33%
    22:00 +10°C° 0 mm 1 mps 681 mmHg 35%
    23:00 +10°C° 0 mm 1 mps 680 mmHg 36%
    Show more